Date String (YYYY-MM-DD hh:mm:ss) UTC,Instrument flags,absolute air pressure of the measurement (hPa),sample flow rate (lpm),inlet stack bypass flow (lpm),air temperature of the measurement (°C),ambient temperature measured by the external sensor (°C),aerosol sample conditioner tube jacket temperature (°C),OPC LED temperature (°C),internal box temperature (°C),relative humidity of the measurement (%),span deviation,mass concentration of particles derived from Lorenz-Mie calculation of OPC scattering (μg/m³),mass concentration of particles derived from Lorenz-Mie calculation of OPC scattering (μg/m³),mass concentration of particles derived from Lorenz-Mie calculation of OPC scattering (μg/m³)
DateTimeUTC,F1_M11,P_M11,Q1_M11,Q2_M11,T1_M11,T2_M11,T3_M11,T4_M11,T5_M11,U1_M11,ZSPAN_M11,X0_M11,X2_M11,X1_M11
2023-09-17 12:00:00,SystemResetWarning,0835.3,5.00,000.00,028.3,026.8,000.0,036.8,029.9,15.3,0000.0,0007.45,0003.62,0003.22
2023-09-17 12:01:00,SystemResetWarning,0835.2,5.00,000.00,028.3,026.8,000.0,036.8,029.9,15.3,0000.0,0007.54,0003.64,0003.21
2023-09-17 12:02:00,SystemResetWarning,0835.3,5.00,000.00,028.3,026.8,000.0,036.8,029.9,15.4,0000.0,0007.49,0003.62,0003.20
2023-09-17 12:03:00,SystemResetWarning,0835.3,5.02,000.00,028.3,026.8,000.0,036.8,029.9,15.3,0000.0,0007.58,0003.65,0003.20
2023-09-17 12:04:00,SystemResetWarning,0835.3,5.00,000.00,028.3,026.8,000.0,036.8,029.9,15.4,0000.0,0006.74,0003.66,0003.20
2023-09-17 12:05:00,SystemResetWarning,0835.3,5.00,000.00,028.3,026.8,000.0,036.8,029.9,15.5,0000.0,0006.47,0003.66,0003.20
2023-09-17 12:06:00,SystemResetWarning,0835.3,4.99,000.00,028.3,026.8,000.0,036.8,029.9,15.6,0000.0,0006.18,0003.59,0003.17
2023-09-17 12:07:00,SystemResetWarning,0835.2,5.00,000.00,028.3,026.8,000.0,036.8,029.9,15.5,0000.0,0006.26,0003.58,0003.17
2023-09-17 12:08:00,SystemResetWarning,0835.3,5.01,000.00,028.3,026.8,000.0,036.8,029.9,15.3,0000.0,0006.38,0003.59,0003.18
2023-09-17 12:09:00,SystemResetWarning,0835.3,5.01,000.00,028.3,026.8,000.0,036.8,029.8,15.3,0000.0,0006.38,0003.59,0003.18
2023-09-17 12:10:00,SystemResetWarning,0835.3,4.99,000.00,028.3,026.8,000.0,036.8,029.9,15.3,0000.0,0006.21,0003.57,0003.19
2023-09-17 12:11:00,SystemResetWarning,0835.2,4.99,000.00,028.3,026.8,000.0,036.8,029.9,15.4,0000.0,0006.19,0003.56,0003.20
2023-09-17 12:12:00,SystemResetWarning,0835.2,5.01,000.00,028.3,026.8,000.0,036.8,029.9,15.3,0000.0,0006.07,0003.54,0003.19
2023-09-17 12:13:00,SystemResetWarning,0835.3,4.99,000.00,028.3,026.8,000.0,036.8,029.8,15.4,0000.0,0006.04,0003.54,0003.19
2023-09-17 12:14:00,SystemResetWarning,0835.3,4.99,000.00,028.3,026.8,000.0,036.7,029.8,15.4,0000.0,0006.10,0003.56,0003.20
2023-09-17 12:15:00,SystemResetWarning,0835.3,4.99,000.00,028.3,026.7,000.0,036.7,029.9,15.4,0000.0,0005.74,0003.56,0003.20
2023-09-17 12:16:00,SystemResetWarning,0835.3,5.01,000.00,028.3,026.7,000.0,036.7,029.9,16.1,0000.0,0005.61,0003.53,0003.20
2023-09-17 12:17:00,SystemResetWarning,0835.3,5.01,000.00,028.3,026.7,000.0,036.7,029.8,16.4,0000.0,0005.70,0003.55,0003.21
2023-09-17 12:18:00,SystemResetWarning,0835.3,5.01,000.00,028.3,026.7,000.0,036.7,029.8,16.6,0000.0,0005.60,0003.55,0003.20
2023-09-17 12:19:00,SystemResetWarning,0835.3,5.01,000.00,028.3,026.7,000.0,036.7,029.8,15.8,0000.0,0005.78,0003.50,0003.18
2023-09-17 12:20:00,SystemResetWarning,0835.3,5.00,000.00,028.3,026.7,000.0,036.7,029.8,15.6,0000.0,0005.72,0003.49,0003.17
2023-09-17 12:21:00,SystemResetWarning,0835.3,5.00,000.00,028.3,026.7,000.0,036.7,029.8,15.4,0000.0,0005.78,0003.48,0003.16
2023-09-17 12:22:00,SystemResetWarning,0835.3,4.99,000.00,028.3,026.7,000.0,036.7,029.9,15.4,0000.0,0005.89,0003.50,0003.15
2023-09-17 12:23:00,SystemResetWarning,0835.2,5.00,000.00,028.3,026.7,000.0,036.7,029.8,15.3,0000.0,0005.94,0003.50,0003.15
2023-09-17 12:24:00,SystemResetWarning,0835.2,4.99,000.00,028.3,026.7,000.0,036.7,029.8,15.3,0000.0,0005.99,0003.50,0003.16
2023-09-17 12:25:00,SystemResetWarning,0835.2,5.00,000.00,028.3,026.7,000.0,036.7,029.8,15.2,0000.0,0005.91,0003.50,0003.15
2023-09-17 12:26:00,SystemResetWarning,0835.2,5.01,000.00,028.3,026.6,000.0,036.7,029.8,15.1,0000.0,0005.81,0003.50,0003.15
2023-09-17 12:27:00,SystemResetWarning,0835.3,5.01,000.00,028.3,026.6,000.0,036.7,029.8,15.2,0000.0,0006.12,0003.50,0003.15
2023-09-17 12:28:00,SystemResetWarning,0835.3,4.99,000.00,028.3,026.6,000.0,036.7,029.8,15.2,0000.0,0006.16,0003.51,0003.16
2023-09-17 12:29:00,SystemResetWarning,0835.3,4.99,000.00,028.2,026.6,000.0,036.7,029.8,15.3,0000.0,0006.21,0003.53,0003.16
2023-09-17 12:30:00,SystemResetWarning,0835.2,5.01,000.00,028.3,026.6,000.0,036.7,029.8,15.3,0000.0,0005.73,0003.54,0003.16
2023-09-17 12:31:00,SystemResetWarning,0835.2,5.01,000.00,028.2,026.6,000.0,036.7,029.8,15.3,0000.0,0005.78,0003.54,0003.16
2023-09-17 12:32:00,SystemResetWarning,0835.2,5.00,000.00,028.2,026.6,000.0,036.7,029.8,15.4,0000.0,0005.71,0003.51,0003.16
2023-09-17 12:33:00,SystemResetWarning,0835.2,5.00,000.00,028.2,026.6,000.0,036.7,029.7,15.3,0000.0,0005.67,0003.51,0003.16
2023-09-17 12:34:00,SystemResetWarning,0835.2,5.00,000.00,028.2,026.6,000.0,036.7,029.8,15.2,0000.0,0005.52,0003.50,0003.16
2023-09-17 12:35:00,SystemResetWarning,0835.2,5.00,000.00,028.2,026.6,000.0,036.7,029.7,15.4,0000.0,0005.39,0003.48,0003.15
2023-09-17 12:36:00,SystemResetWarning,0835.2,5.00,000.00,028.2,026.6,000.0,036.7,029.7,15.5,0000.0,0005.32,0003.45,0003.15
2023-09-17 12:37:00,SystemResetWarning,0835.3,5.00,000.00,028.2,026.6,000.0,036.7,029.7,15.6,0000.0,0005.28,0003.44,0003.14
2023-09-17 12:38:00,SystemResetWarning,0835.2,5.00,000.00,028.2,026.6,000.0,036.7,029.7,15.7,0000.0,0005.04,0003.44,0003.14
2023-09-17 12:39:00,SystemResetWarning,0835.3,5.00,000.00,028.2,026.6,000.0,036.7,029.7,15.5,0000.0,0004.94,0003.42,0003.13
2023-09-17 12:40:00,SystemResetWarning,0835.3,5.00,000.00,028.2,026.5,000.0,036.7,029.7,15.3,0000.0,0004.97,0003.42,0003.14
2023-09-17 12:41:00,SystemResetWarning,0835.2,5.00,000.00,028.2,026.5,000.0,036.7,029.7,15.4,0000.0,0005.00,0003.42,0003.14
2023-09-17 12:42:00,SystemResetWarning,0835.2,5.00,000.00,028.2,026.5,000.0,036.7,029.7,15.4,0000.0,0005.09,0003.43,0003.14
2023-09-17 12:43:00,SystemResetWarning,0835.2,5.01,000.00,028.2,026.5,000.0,036.7,029.7,15.6,0000.0,0005.04,0003.43,0003.14
2023-09-17 12:44:00,SystemResetWarning,0835.2,5.01,000.00,028.2,026.5,000.0,036.7,029.6,15.8,0000.0,0005.02,0003.42,0003.14
2023-09-17 12:45:00,SystemResetWarning,0835.2,5.00,000.00,028.2,026.5,000.0,036.7,029.6,15.5,0000.0,0005.16,0003.44,0003.13
2023-09-17 12:46:00,SystemResetWarning,0835.3,5.00,000.00,028.2,026.5,000.0,036.6,029.6,15.4,0000.0,0005.55,0003.48,0003.13
2023-09-17 12:47:00,SystemResetWarning,0835.3,5.00,000.00,028.1,026.5,000.0,036.6,029.6,16.0,0000.0,0005.53,0003.48,0003.13
2023-09-17 12:48:00,SystemResetWarning,0835.3,4.99,000.00,028.1,026.5,000.0,036.6,029.6,16.1,0000.0,0005.62,0003.49,0003.13
2023-09-17 12:49:00,SystemResetWarning,0835.3,5.00,000.00,028.1,026.5,000.0,036.6,029.6,15.9,0000.0,0005.58,0003.49,0003.12
2023-09-17 12:50:00,SystemResetWarning,0835.2,5.00,000.00,028.1,026.5,000.0,036.6,029.6,16.2,0000.0,0005.48,0003.47,0003.11
2023-09-17 12:51:00,SystemResetWarning,0835.2,5.01,000.00,028.1,026.4,000.0,036.6,029.6,16.4,0000.0,0005.50,0003.47,0003.12
2023-09-17 12:52:00,SystemResetWarning,0835.2,5.01,000.00,028.1,026.4,000.0,036.6,029.7,16.3,0000.0,0005.70,0003.46,0003.11
2023-09-17 12:53:00,SystemResetWarning,0835.3,5.00,000.00,028.1,026.4,000.0,036.6,029.6,16.1,0000.0,0006.74,0003.45,0003.10
2023-09-17 12:54:00,SystemResetWarning,0835.2,5.00,000.00,028.1,026.4,000.0,036.6,029.6,15.5,0000.0,0006.96,0003.45,0003.10
2023-09-17 12:55:00,SystemResetWarning,0835.3,4.99,000.00,028.1,026.4,000.0,036.6,029.6,15.3,0000.0,0006.87,0003.42,0003.09
2023-09-17 12:56:00,SystemResetWarning,0835.3,5.01,000.00,028.1,026.4,000.0,036.6,029.6,15.2,0000.0,0006.86,0003.43,0003.10
2023-09-17 12:57:00,SystemResetWarning,0835.2,5.01,000.00,028.1,026.4,000.0,036.6,029.6,15.2,0000.0,0006.55,0003.40,0003.10
2023-09-17 12:58:00,SystemResetWarning,0835.2,5.00,000.00,028.1,026.4,000.0,036.6,029.6,15.2,0000.0,0006.56,0003.42,0003.11
2023-09-17 12:59:00,SystemResetWarning,0835.2,5.00,000.00,028.1,026.4,000.0,036.6,029.6,15.2,0000.0,0006.58,0003.42,0003.11
